Year,Month,Day,Hour,Minute,Value (Times are PST for barometer in hPa)
2016,03,05,00,00,996.58
2016,03,05,00,01,996.48
2016,03,05,00,02,996.41
2016,03,05,00,03,996.41
2016,03,05,00,04,996.34
2016,03,05,00,05,996.31
2016,03,05,00,06,996.34
2016,03,05,00,07,996.31
2016,03,05,00,08,996.28
2016,03,05,00,09,996.24
2016,03,05,00,10,996.24
2016,03,05,00,11,996.14
2016,03,05,00,12,996.17
2016,03,05,00,13,996.11
2016,03,05,00,14,996.04
2016,03,05,00,15,996.01
2016,03,05,00,16,996.04
2016,03,05,00,17,996.01
2016,03,05,00,18,995.94
2016,03,05,00,19,995.94
2016,03,05,00,20,995.94
2016,03,05,00,21,995.94
2016,03,05,00,22,995.97
2016,03,05,00,23,995.94
2016,03,05,00,24,995.90
2016,03,05,00,25,995.90
2016,03,05,00,26,995.84
2016,03,05,00,27,995.84
2016,03,05,00,28,995.84
2016,03,05,00,29,995.73
2016,03,05,00,30,995.70
2016,03,05,00,31,995.73
2016,03,05,00,32,995.73
2016,03,05,00,33,995.73
2016,03,05,00,34,995.73
2016,03,05,00,35,995.63
2016,03,05,00,36,995.56
2016,03,05,00,37,995.53
2016,03,05,00,38,995.37
2016,03,05,00,39,995.46
2016,03,05,00,40,995.40
2016,03,05,00,41,995.43
2016,03,05,00,42,995.46
2016,03,05,00,43,995.40
2016,03,05,00,44,995.46
2016,03,05,00,45,995.40
2016,03,05,00,46,995.50
2016,03,05,00,47,995.40
2016,03,05,00,48,995.36
2016,03,05,00,49,995.36
2016,03,05,00,50,995.19
2016,03,05,00,51,995.23
2016,03,05,00,52,995.19
2016,03,05,00,53,995.19
2016,03,05,00,54,995.26
2016,03,05,00,55,995.16
2016,03,05,00,56,995.29
2016,03,05,00,57,995.23
2016,03,05,00,58,995.23
2016,03,05,00,59,995.16
2016,03,05,01,00,995.16
2016,03,05,01,01,995.19
2016,03,05,01,02,995.07
2016,03,05,01,03,995.06
2016,03,05,01,04,995.12
2016,03,05,01,05,995.02
2016,03,05,01,06,994.99
2016,03,05,01,07,994.96
2016,03,05,01,08,995.09
2016,03,05,01,09,995.06
2016,03,05,01,10,994.99
2016,03,05,01,11,994.99
2016,03,05,01,12,995.02
2016,03,05,01,13,994.92
2016,03,05,01,14,994.89
2016,03,05,01,15,994.92
2016,03,05,01,16,994.82
2016,03,05,01,17,994.82
2016,03,05,01,18,994.75
2016,03,05,01,19,994.82
2016,03,05,01,20,994.82
2016,03,05,01,21,994.82
2016,03,05,01,22,994.79
2016,03,05,01,23,994.79
2016,03,05,01,24,994.65
2016,03,05,01,25,994.62
2016,03,05,01,26,994.62
2016,03,05,01,27,994.62
2016,03,05,01,28,994.65
2016,03,05,01,29,994.65
2016,03,05,01,30,994.72
2016,03,05,01,31,994.62
2016,03,05,01,32,994.58
2016,03,05,01,33,994.48
2016,03,05,01,34,994.61
2016,03,05,01,35,994.41
2016,03,05,01,36,994.45
2016,03,05,01,37,994.45
2016,03,05,01,38,994.41
2016,03,05,01,39,994.45
2016,03,05,01,40,994.31
2016,03,05,01,41,994.31
2016,03,05,01,42,994.21
2016,03,05,01,43,994.11
2016,03,05,01,44,994.01
2016,03,05,01,45,994.07
2016,03,05,01,46,994.18
2016,03,05,01,47,994.18
2016,03,05,01,48,994.18
2016,03,05,01,49,994.31
2016,03,05,01,50,994.28
2016,03,05,01,51,994.28
2016,03,05,01,52,994.24
2016,03,05,01,53,994.18
2016,03,05,01,54,994.21
2016,03,05,01,55,994.14
2016,03,05,01,56,994.14
2016,03,05,01,57,994.07
2016,03,05,01,58,994.07
2016,03,05,01,59,994.01
2016,03,05,02,00,993.94
2016,03,05,02,01,993.80
2016,03,05,02,02,993.63
2016,03,05,02,03,993.57
2016,03,05,02,04,993.70
2016,03,05,02,05,993.47
2016,03,05,02,06,993.70
2016,03,05,02,07,993.47
2016,03,05,02,08,993.53
2016,03,05,02,09,993.67
2016,03,05,02,10,993.60
2016,03,05,02,11,993.67
2016,03,05,02,12,993.57
2016,03,05,02,13,993.60
2016,03,05,02,14,993.43
2016,03,05,02,15,993.33
2016,03,05,02,16,993.40
2016,03,05,02,17,993.47
2016,03,05,02,18,993.57
2016,03,05,02,19,993.57
2016,03,05,02,20,993.47
2016,03,05,02,21,993.36
2016,03,05,02,22,993.40
2016,03,05,02,23,993.30
2016,03,05,02,24,993.36
2016,03,05,02,25,993.16
2016,03,05,02,26,993.23
2016,03,05,02,27,993.30
2016,03,05,02,28,993.19
2016,03,05,02,29,993.26
2016,03,05,02,30,993.19
2016,03,05,02,31,993.26
2016,03,05,02,32,993.23
2016,03,05,02,33,993.16
2016,03,05,02,34,993.06
2016,03,05,02,35,993.06
2016,03,05,02,36,993.03
2016,03,05,02,37,993.03
2016,03,05,02,38,993.16
2016,03,05,02,39,993.16
2016,03,05,02,40,993.06
2016,03,05,02,41,993.19
2016,03,05,02,42,993.13
2016,03,05,02,43,993.03
2016,03,05,02,44,993.13
2016,03,05,02,45,993.13
2016,03,05,02,46,993.03
2016,03,05,02,47,993.13
2016,03,05,02,48,993.13
2016,03,05,02,49,993.13
2016,03,05,02,50,993.09
2016,03,05,02,51,993.23
2016,03,05,02,52,993.16
2016,03,05,02,53,993.23
2016,03,05,02,54,993.13
2016,03,05,02,55,993.13
2016,03,05,02,56,993.23
2016,03,05,02,57,993.26
2016,03,05,02,58,993.26
2016,03,05,02,59,993.33
2016,03,05,03,00,993.33
2016,03,05,03,01,993.30
2016,03,05,03,02,993.40
2016,03,05,03,03,993.36
2016,03,05,03,04,993.43
2016,03,05,03,05,993.47
2016,03,05,03,06,993.50
2016,03,05,03,07,993.60
2016,03,05,03,08,993.77
2016,03,05,03,09,993.80
2016,03,05,03,10,993.91
2016,03,05,03,11,993.87
2016,03,05,03,12,993.94
2016,03,05,03,13,994.04
2016,03,05,03,14,994.11
2016,03,05,03,15,994.11
2016,03,05,03,16,994.11
2016,03,05,03,17,994.14
2016,03,05,03,18,994.07
2016,03,05,03,19,994.18
2016,03,05,03,20,994.11
2016,03,05,03,21,994.14
2016,03,05,03,22,994.07
2016,03,05,03,23,994.07
2016,03,05,03,24,994.11
2016,03,05,03,25,994.18
2016,03,05,03,26,994.11
2016,03,05,03,27,993.86
2016,03,05,03,28,993.71
2016,03,05,03,29,993.84
2016,03,05,03,30,993.77
2016,03,05,03,31,993.70
2016,03,05,03,32,993.70
2016,03,05,03,33,993.80
2016,03,05,03,34,993.80
2016,03,05,03,35,993.91
2016,03,05,03,36,993.94
2016,03,05,03,37,993.94
2016,03,05,03,38,993.91
2016,03,05,03,39,993.87
2016,03,05,03,40,993.91
2016,03,05,03,41,993.87
2016,03,05,03,42,993.84
2016,03,05,03,43,993.87
2016,03,05,03,44,993.84
2016,03,05,03,45,993.87
2016,03,05,03,46,993.94
2016,03,05,03,47,994.04
2016,03,05,03,48,994.11
2016,03,05,03,49,994.14
2016,03,05,03,50,994.21
2016,03,05,03,51,994.24
2016,03,05,03,52,994.14
2016,03,05,03,53,994.08
2016,03,05,03,54,994.21
2016,03,05,03,55,994.31
2016,03,05,03,56,994.35
2016,03,05,03,57,994.38
2016,03,05,03,58,994.45
2016,03,05,03,59,994.41
2016,03,05,04,00,994.38
2016,03,05,04,01,994.38
2016,03,05,04,02,994.48
2016,03,05,04,03,994.48
2016,03,05,04,04,994.45
2016,03,05,04,05,994.48
2016,03,05,04,06,994.55
2016,03,05,04,07,994.55
2016,03,05,04,08,994.52
2016,03,05,04,09,994.62
2016,03,05,04,10,994.65
2016,03,05,04,11,994.65
2016,03,05,04,12,994.72
2016,03,05,04,13,994.79
2016,03,05,04,14,994.75
2016,03,05,04,15,994.75
2016,03,05,04,16,994.82
2016,03,05,04,17,994.89
2016,03,05,04,18,994.89
2016,03,05,04,19,994.89
2016,03,05,04,20,994.89
2016,03,05,04,21,994.75
2016,03,05,04,22,994.75
2016,03,05,04,23,994.82
2016,03,05,04,24,994.79
2016,03,05,04,25,994.82
2016,03,05,04,26,994.89
2016,03,05,04,27,994.92
2016,03,05,04,28,994.89
2016,03,05,04,29,994.89
2016,03,05,04,30,994.89
2016,03,05,04,31,994.89
2016,03,05,04,32,994.89
2016,03,05,04,33,994.92
2016,03,05,04,34,994.96
2016,03,05,04,35,995.02
2016,03,05,04,36,994.89
2016,03,05,04,37,994.92
2016,03,05,04,38,994.89
2016,03,05,04,39,994.92
2016,03,05,04,40,994.96
2016,03,05,04,41,994.96
2016,03,05,04,42,994.92
2016,03,05,04,43,994.96
2016,03,05,04,44,994.99
2016,03,05,04,45,995.02
2016,03,05,04,46,995.02
2016,03,05,04,47,995.09
2016,03,05,04,48,995.23
2016,03,05,04,49,995.33
2016,03,05,04,50,995.29
2016,03,05,04,51,995.29
2016,03,05,04,52,995.26
2016,03,05,04,53,995.33
2016,03,05,04,54,995.33
2016,03,05,04,55,995.33
2016,03,05,04,56,995.29
2016,03,05,04,57,995.36
2016,03,05,04,58,995.36
2016,03,05,04,59,995.40
2016,03,05,05,00,995.43
2016,03,05,05,01,995.40
2016,03,05,05,02,995.43
2016,03,05,05,03,995.40
2016,03,05,05,04,995.40
2016,03,05,05,05,995.40
2016,03,05,05,06,995.40
2016,03,05,05,07,995.43
2016,03,05,05,08,995.50
2016,03,05,05,09,995.53
2016,03,05,05,10,995.43
2016,03,05,05,11,995.46
2016,03,05,05,12,995.50
2016,03,05,05,13,995.46
2016,03,05,05,14,995.53
2016,03,05,05,15,995.56
2016,03,05,05,16,995.63
2016,03,05,05,17,995.67
2016,03,05,05,18,995.67
2016,03,05,05,19,995.67
2016,03,05,05,20,995.73
2016,03,05,05,21,995.84
2016,03,05,05,22,995.80
2016,03,05,05,23,995.84
2016,03,05,05,24,995.77
2016,03,05,05,25,995.73
2016,03,05,05,26,995.77
2016,03,05,05,27,995.80
2016,03,05,05,28,995.77
2016,03,05,05,29,995.84
2016,03,05,05,30,995.80
2016,03,05,05,31,995.80
2016,03,05,05,32,995.90
2016,03,05,05,33,995.90
2016,03,05,05,34,995.90
2016,03,05,05,35,995.94
2016,03,05,05,36,996.01
2016,03,05,05,37,996.01
2016,03,05,05,38,996.04
2016,03,05,05,39,995.97
2016,03,05,05,40,996.07
2016,03,05,05,41,996.11
2016,03,05,05,42,996.11
2016,03,05,05,43,996.14
2016,03,05,05,44,996.17
2016,03,05,05,45,996.17
2016,03,05,05,46,996.17
2016,03,05,05,47,996.17
2016,03,05,05,48,996.21
2016,03,05,05,49,996.21
2016,03,05,05,50,996.17
2016,03,05,05,51,996.21
2016,03,05,05,52,996.28
2016,03,05,05,53,996.28
2016,03,05,05,54,996.38
2016,03,05,05,55,996.34
2016,03,05,05,56,996.38
2016,03,05,05,57,996.45
2016,03,05,05,58,996.51
2016,03,05,05,59,996.51
2016,03,05,06,00,996.51
2016,03,05,06,01,996.48
2016,03,05,06,02,996.48
2016,03,05,06,03,996.45
2016,03,05,06,04,996.45
2016,03,05,06,05,996.48
2016,03,05,06,06,996.51
2016,03,05,06,07,996.55
2016,03,05,06,08,996.55
2016,03,05,06,09,996.58
2016,03,05,06,10,996.61
2016,03,05,06,11,996.58
2016,03,05,06,12,996.65
2016,03,05,06,13,996.61
2016,03,05,06,14,996.58
2016,03,05,06,15,996.55
2016,03,05,06,16,996.58
2016,03,05,06,17,996.61
2016,03,05,06,18,996.55
2016,03,05,06,19,996.51
2016,03,05,06,20,996.55
2016,03,05,06,21,996.51
2016,03,05,06,22,996.41
2016,03,05,06,23,996.51
2016,03,05,06,24,996.55
2016,03,05,06,25,996.55
2016,03,05,06,26,996.68
2016,03,05,06,27,996.82
2016,03,05,06,28,996.78
2016,03,05,06,29,996.78
2016,03,05,06,30,996.85
2016,03,05,06,31,996.89
2016,03,05,06,32,996.92
2016,03,05,06,33,996.99
2016,03,05,06,34,996.99
2016,03,05,06,35,997.05
2016,03,05,06,36,997.09
2016,03,05,06,37,997.02
2016,03,05,06,38,997.05
2016,03,05,06,39,997.12
2016,03,05,06,40,997.12
2016,03,05,06,41,997.05
2016,03,05,06,42,997.12
2016,03,05,06,43,997.12
2016,03,05,06,44,997.22
2016,03,05,06,45,997.29
2016,03,05,06,46,997.19
2016,03,05,06,47,997.22
2016,03,05,06,48,997.19
2016,03,05,06,49,997.19
2016,03,05,06,50,997.29
2016,03,05,06,51,997.29
2016,03,05,06,52,997.29
2016,03,05,06,53,997.33
2016,03,05,06,54,997.33
2016,03,05,06,55,997.43
2016,03,05,06,56,997.46
2016,03,05,06,57,997.50
2016,03,05,06,58,997.46
2016,03,05,06,59,997.53
2016,03,05,07,00,997.63
2016,03,05,07,01,997.60
2016,03,05,07,02,997.56
2016,03,05,07,03,997.63
2016,03,05,07,04,997.66
2016,03,05,07,05,997.66
2016,03,05,07,06,997.66
2016,03,05,07,07,997.70
2016,03,05,07,08,997.73
2016,03,05,07,09,997.73
2016,03,05,07,10,997.77
2016,03,05,07,11,997.73
2016,03,05,07,12,997.80
2016,03,05,07,13,997.90
2016,03,05,07,14,997.90
2016,03,05,07,15,997.97
2016,03,05,07,16,998.00
2016,03,05,07,17,997.97
2016,03,05,07,18,998.00
2016,03,05,07,19,997.97
2016,03,05,07,20,997.97
2016,03,05,07,21,997.97
2016,03,05,07,22,998.04
2016,03,05,07,23,997.97
2016,03,05,07,24,997.97
2016,03,05,07,25,998.07
2016,03,05,07,26,998.14
2016,03,05,07,27,998.17
2016,03,05,07,28,998.21
2016,03,05,07,29,998.31
2016,03,05,07,30,998.31
2016,03,05,07,31,998.34
2016,03,05,07,32,998.27
2016,03,05,07,33,998.15
2016,03,05,07,34,998.27
2016,03,05,07,35,998.27
2016,03,05,07,36,998.27
2016,03,05,07,37,998.34
2016,03,05,07,38,998.38
2016,03,05,07,39,998.41
2016,03,05,07,40,998.38
2016,03,05,07,41,998.38
2016,03,05,07,42,998.38
2016,03,05,07,43,998.38
2016,03,05,07,44,998.44
2016,03,05,07,45,998.41
2016,03,05,07,46,998.44
2016,03,05,07,47,998.44
2016,03,05,07,48,998.44
2016,03,05,07,49,998.54
2016,03,05,07,50,998.58
2016,03,05,07,51,998.58
2016,03,05,07,52,998.58
2016,03,05,07,53,998.58
2016,03,05,07,54,998.65
2016,03,05,07,55,998.71
2016,03,05,07,56,998.71
2016,03,05,07,57,998.75
2016,03,05,07,58,998.82
2016,03,05,07,59,998.85
2016,03,05,08,00,998.92
2016,03,05,08,01,998.92
2016,03,05,08,02,998.92
2016,03,05,08,03,998.99
2016,03,05,08,04,999.02
2016,03,05,08,05,999.02
2016,03,05,08,06,999.05
2016,03,05,08,07,999.12
2016,03,05,08,08,999.09
2016,03,05,08,09,999.19
2016,03,05,08,10,999.26
2016,03,05,08,11,999.19
2016,03,05,08,12,999.26
2016,03,05,08,13,999.29
2016,03,05,08,14,999.26
2016,03,05,08,15,999.26
2016,03,05,08,16,999.22
2016,03,05,08,17,999.26
2016,03,05,08,18,999.22
2016,03,05,08,19,999.19
2016,03,05,08,20,999.26
2016,03,05,08,21,999.29
2016,03,05,08,22,999.32
2016,03,05,08,23,999.36
2016,03,05,08,24,999.36
2016,03,05,08,25,999.43
2016,03,05,08,26,999.53
2016,03,05,08,27,999.49
2016,03,05,08,28,999.56
2016,03,05,08,29,999.53
2016,03,05,08,30,999.53
2016,03,05,08,31,999.56
2016,03,05,08,32,999.56
2016,03,05,08,33,999.59
2016,03,05,08,34,999.63
2016,03,05,08,35,999.66
2016,03,05,08,36,999.70
2016,03,05,08,37,999.73
2016,03,05,08,38,999.73
2016,03,05,08,39,999.76
2016,03,05,08,40,999.80
2016,03,05,08,41,999.80
2016,03,05,08,42,999.80
2016,03,05,08,43,999.70
2016,03,05,08,44,999.76
2016,03,05,08,45,999.80
2016,03,05,08,46,999.80
2016,03,05,08,47,999.80
2016,03,05,08,48,999.80
2016,03,05,08,49,999.80
2016,03,05,08,50,999.83
2016,03,05,08,51,999.80
2016,03,05,08,52,999.80
2016,03,05,08,53,999.83
2016,03,05,08,54,999.87
2016,03,05,08,55,999.87
2016,03,05,08,56,999.90
2016,03,05,08,57,999.90
2016,03,05,08,58,999.93
2016,03,05,08,59,999.90
2016,03,05,09,00,999.83
2016,03,05,09,01,999.80
2016,03,05,09,02,999.83
2016,03,05,09,03,999.83
2016,03,05,09,04,999.80
2016,03,05,09,05,999.80
2016,03,05,09,06,999.73
2016,03,05,09,07,999.83
2016,03,05,09,08,999.80
2016,03,05,09,09,999.80
2016,03,05,09,10,999.83
2016,03,05,09,11,999.83
2016,03,05,09,12,999.87
2016,03,05,09,13,999.87
2016,03,05,09,14,999.90
2016,03,05,09,15,999.93
2016,03,05,09,16,999.97
2016,03,05,09,17,999.97
2016,03,05,09,18,999.97
2016,03,05,09,19,999.97
2016,03,05,09,20,999.90
2016,03,05,09,21,999.90
2016,03,05,09,22,999.90
2016,03,05,09,23,999.93
2016,03,05,09,24,999.97
2016,03,05,09,25,999.87
2016,03,05,09,26,999.87
2016,03,05,09,27,999.90
2016,03,05,09,28,999.93
2016,03,05,09,29,999.90
2016,03,05,09,30,999.93
2016,03,05,09,31,999.90
2016,03,05,09,32,999.90
2016,03,05,09,33,999.93
2016,03,05,09,34,999.93
2016,03,05,09,35,999.90
2016,03,05,09,36,999.93
2016,03,05,09,37,999.90
2016,03,05,09,38,999.87
2016,03,05,09,39,999.87
2016,03,05,09,40,999.90
2016,03,05,09,41,999.93
2016,03,05,09,42,999.90
2016,03,05,09,43,999.97
2016,03,05,09,44,1000.03
2016,03,05,09,45,1000.07
2016,03,05,09,46,1000.00
2016,03,05,09,47,1000.03
2016,03,05,09,48,1000.03
2016,03,05,09,49,1000.03
2016,03,05,09,50,1000.07
2016,03,05,09,51,1000.07
2016,03,05,09,52,1000.03
2016,03,05,09,53,1000.07
2016,03,05,09,54,1000.14
2016,03,05,09,55,1000.17
2016,03,05,09,56,1000.14
2016,03,05,09,57,1000.14
2016,03,05,09,58,1000.14
2016,03,05,09,59,1000.07
2016,03,05,10,00,1000.03
2016,03,05,10,01,1000.07
2016,03,05,10,02,1000.07
2016,03,05,10,03,1000.07
2016,03,05,10,04,1000.07
2016,03,05,10,05,1000.07
2016,03,05,10,06,1000.10
2016,03,05,10,07,1000.07
2016,03,05,10,08,1000.07
2016,03,05,10,09,1000.07
2016,03,05,10,10,1000.10
2016,03,05,10,11,1000.03
2016,03,05,10,12,1000.07
2016,03,05,10,13,1000.07
2016,03,05,10,14,1000.07
2016,03,05,10,15,1000.03
2016,03,05,10,16,1000.03
2016,03,05,10,17,1000.03
2016,03,05,10,18,1000.07
2016,03,05,10,19,1000.14
2016,03,05,10,20,1000.07
2016,03,05,10,21,1000.07
2016,03,05,10,22,1000.07
2016,03,05,10,23,1000.03
2016,03,05,10,24,1000.00
2016,03,05,10,25,1000.03
2016,03,05,10,26,1000.03
2016,03,05,10,27,1000.00
2016,03,05,10,28,1000.00
2016,03,05,10,29,999.97
2016,03,05,10,30,999.97
2016,03,05,10,31,999.93
2016,03,05,10,32,999.87
2016,03,05,10,33,999.93
2016,03,05,10,34,999.93
2016,03,05,10,35,999.87
2016,03,05,10,36,999.90
2016,03,05,10,37,999.90
2016,03,05,10,38,999.90
2016,03,05,10,39,999.90
2016,03,05,10,40,999.87
2016,03,05,10,41,999.90
2016,03,05,10,42,999.87
2016,03,05,10,43,999.87
2016,03,05,10,44,999.83
2016,03,05,10,45,999.76
2016,03,05,10,46,999.80
2016,03,05,10,47,999.73
2016,03,05,10,48,999.70
2016,03,05,10,49,999.70
2016,03,05,10,50,999.70
2016,03,05,10,51,999.70
2016,03,05,10,52,999.76
2016,03,05,10,53,999.80
2016,03,05,10,54,999.73
2016,03,05,10,55,999.73
2016,03,05,10,56,999.76
2016,03,05,10,57,999.66
2016,03,05,10,58,999.70
2016,03,05,10,59,999.66
2016,03,05,11,00,999.56
2016,03,05,11,01,999.56
2016,03,05,11,02,999.56
2016,03,05,11,03,999.56
2016,03,05,11,04,999.53
2016,03,05,11,05,999.53
2016,03,05,11,06,999.46
2016,03,05,11,07,999.49
2016,03,05,11,08,999.56
2016,03,05,11,09,999.49
2016,03,05,11,10,999.56
2016,03,05,11,11,999.56
2016,03,05,11,12,999.56
2016,03,05,11,13,999.66
2016,03,05,11,14,999.66
2016,03,05,11,15,999.70
2016,03,05,11,16,999.63
2016,03,05,11,17,999.59
2016,03,05,11,18,999.59
2016,03,05,11,19,999.73
2016,03,05,11,20,999.66
2016,03,05,11,21,999.76
2016,03,05,11,22,999.83
2016,03,05,11,23,999.83
2016,03,05,11,24,999.90
2016,03,05,11,25,1000.00
2016,03,05,11,26,1000.03
2016,03,05,11,27,1000.03
2016,03,05,11,28,1000.07
2016,03,05,11,29,1000.10
2016,03,05,11,30,1000.07
2016,03,05,11,31,1000.07
2016,03,05,11,32,1000.07
2016,03,05,11,33,1000.17
2016,03,05,11,34,1000.17
2016,03,05,11,35,1000.20
2016,03,05,11,36,1000.27
2016,03,05,11,37,1000.34
2016,03,05,11,38,1000.37
2016,03,05,11,39,1000.37
2016,03,05,11,40,1000.41
2016,03,05,11,41,1000.34
2016,03,05,11,42,1000.34
2016,03,05,11,43,1000.34
2016,03,05,11,44,1000.27
2016,03,05,11,45,1000.37
2016,03,05,11,46,1000.37
2016,03,05,11,47,1000.41
2016,03,05,11,48,1000.44
2016,03,05,11,49,1000.57
2016,03,05,11,50,1000.58
2016,03,05,11,51,1000.64
2016,03,05,11,52,1000.64
2016,03,05,11,53,1000.61
2016,03,05,11,54,1000.61
2016,03,05,11,55,1000.64
2016,03,05,11,56,1000.64
2016,03,05,11,57,1000.68
2016,03,05,11,58,1000.68
2016,03,05,11,59,1000.68
2016,03,05,12,00,1000.68
2016,03,05,12,01,1000.75
2016,03,05,12,02,1000.75
2016,03,05,12,03,1000.75
2016,03,05,12,04,1000.71
2016,03,05,12,05,1000.78
2016,03,05,12,06,1000.78
2016,03,05,12,07,1000.71
2016,03,05,12,08,1000.64
2016,03,05,12,09,1000.68
2016,03,05,12,10,1000.68
2016,03,05,12,11,1000.64
2016,03,05,12,12,1000.61
2016,03,05,12,13,1000.61
2016,03,05,12,14,1000.54
2016,03,05,12,15,1000.48
2016,03,05,12,16,1000.44
2016,03,05,12,17,1000.48
2016,03,05,12,18,1000.51
2016,03,05,12,19,1000.54
2016,03,05,12,20,1000.58
2016,03,05,12,21,1000.54
2016,03,05,12,22,1000.54
2016,03,05,12,23,1000.51
2016,03,05,12,24,1000.48
2016,03,05,12,25,1000.44
2016,03,05,12,26,1000.44
2016,03,05,12,27,1000.51
2016,03,05,12,28,1000.54
2016,03,05,12,29,1000.61
2016,03,05,12,30,1000.54
2016,03,05,12,31,1000.54
2016,03,05,12,32,1000.51
2016,03,05,12,33,1000.51
2016,03,05,12,34,1000.58
2016,03,05,12,35,1000.54
2016,03,05,12,36,1000.54
2016,03,05,12,37,1000.51
2016,03,05,12,38,1000.58
2016,03,05,12,39,1000.58
2016,03,05,12,40,1000.58
2016,03,05,12,41,1000.61
2016,03,05,12,42,1000.61
2016,03,05,12,43,1000.61
2016,03,05,12,44,1000.61
2016,03,05,12,45,1000.68
2016,03,05,12,46,1000.68
2016,03,05,12,47,1000.68
2016,03,05,12,48,1000.75
2016,03,05,12,49,1000.81
2016,03,05,12,50,1000.81
2016,03,05,12,51,1000.88
2016,03,05,12,52,1000.95
2016,03,05,12,53,1000.98
2016,03,05,12,54,1000.92
2016,03,05,12,55,1000.88
2016,03,05,12,56,1000.88
2016,03,05,12,57,1000.75
2016,03,05,12,58,1000.75
2016,03,05,12,59,1000.61
2016,03,05,13,00,1000.64
2016,03,05,13,01,1000.61
2016,03,05,13,02,1000.64
2016,03,05,13,03,1000.54
2016,03,05,13,04,1000.58
2016,03,05,13,05,1000.48
2016,03,05,13,06,1000.51
2016,03,05,13,07,1000.44
2016,03,05,13,08,1000.51
2016,03,05,13,09,1000.48
2016,03,05,13,10,1000.51
2016,03,05,13,11,1000.38
2016,03,05,13,12,1000.37
2016,03,05,13,13,1000.44
2016,03,05,13,14,1000.41
2016,03,05,13,15,1000.41
2016,03,05,13,16,1000.44
2016,03,05,13,17,1000.48
2016,03,05,13,18,1000.48
2016,03,05,13,19,1000.37
2016,03,05,13,20,1000.41
2016,03,05,13,21,1000.37
2016,03,05,13,22,1000.34
2016,03,05,13,23,1000.27
2016,03,05,13,24,1000.31
2016,03,05,13,25,1000.24
2016,03,05,13,26,1000.20
2016,03,05,13,27,1000.17
2016,03,05,13,28,1000.07
2016,03,05,13,29,1000.10
2016,03,05,13,30,1000.07
2016,03,05,13,31,1000.10
2016,03,05,13,32,999.97
2016,03,05,13,33,999.97
2016,03,05,13,34,1000.03
2016,03,05,13,35,1000.03
2016,03,05,13,36,999.97
2016,03,05,13,37,1000.03
2016,03,05,13,38,1000.07
2016,03,05,13,39,999.93
2016,03,05,13,40,1000.03
2016,03,05,13,41,999.93
2016,03,05,13,42,999.93
2016,03,05,13,43,999.93
2016,03,05,13,44,999.97
2016,03,05,13,45,999.93
2016,03,05,13,46,999.87
2016,03,05,13,47,999.93
2016,03,05,13,48,999.90
2016,03,05,13,49,999.87
2016,03,05,13,50,999.87
2016,03,05,13,51,999.83
2016,03,05,13,52,999.83
2016,03,05,13,53,999.87
2016,03,05,13,54,999.83
2016,03,05,13,55,999.90
2016,03,05,13,56,999.87
2016,03,05,13,57,999.90
2016,03,05,13,58,999.87
2016,03,05,13,59,999.93
2016,03,05,14,00,999.87
2016,03,05,14,01,999.87
2016,03,05,14,02,999.83
2016,03,05,14,03,999.83
2016,03,05,14,04,999.83
2016,03,05,14,05,999.76
2016,03,05,14,06,999.76
2016,03,05,14,07,999.76
2016,03,05,14,08,999.73
2016,03,05,14,09,999.70
2016,03,05,14,10,999.66
2016,03,05,14,11,999.70
2016,03,05,14,12,999.63
2016,03,05,14,13,999.63
2016,03,05,14,14,999.53
2016,03,05,14,15,999.59
2016,03,05,14,16,999.56
2016,03,05,14,17,999.46
2016,03,05,14,18,999.46
2016,03,05,14,19,999.39
2016,03,05,14,20,999.39
2016,03,05,14,21,999.43
2016,03,05,14,22,999.43
2016,03,05,14,23,999.43
2016,03,05,14,24,999.43
2016,03,05,14,25,999.39
2016,03,05,14,26,999.39
2016,03,05,14,27,999.43
2016,03,05,14,28,999.39
2016,03,05,14,29,999.39
2016,03,05,14,30,999.32
2016,03,05,14,31,999.39
2016,03,05,14,32,999.32
2016,03,05,14,33,999.26
2016,03,05,14,34,999.29
2016,03,05,14,35,999.29
2016,03,05,14,36,999.26
2016,03,05,14,37,999.15
2016,03,05,14,38,999.15
2016,03,05,14,39,999.15
2016,03,05,14,40,999.12
2016,03,05,14,41,999.09
2016,03,05,14,42,999.12
2016,03,05,14,43,999.12
2016,03,05,14,44,999.15
2016,03,05,14,45,999.12
2016,03,05,14,46,999.12
2016,03,05,14,47,999.12
2016,03,05,14,48,999.09
2016,03,05,14,49,999.02
2016,03,05,14,50,999.05
2016,03,05,14,51,999.02
2016,03,05,14,52,998.92
2016,03,05,14,53,998.92
2016,03,05,14,54,998.82
2016,03,05,14,55,998.85
2016,03,05,14,56,998.78
2016,03,05,14,57,998.78
2016,03,05,14,58,998.78
2016,03,05,14,59,998.68
2016,03,05,15,00,998.71
2016,03,05,15,01,998.65
2016,03,05,15,02,998.61
2016,03,05,15,03,998.58
2016,03,05,15,04,998.48
2016,03,05,15,05,998.44
2016,03,05,15,06,998.41
2016,03,05,15,07,998.38
2016,03,05,15,08,998.27
2016,03,05,15,09,998.24
2016,03,05,15,10,998.21
2016,03,05,15,11,998.07
2016,03,05,15,12,998.07
2016,03,05,15,13,998.07
2016,03,05,15,14,997.90
2016,03,05,15,15,997.90
2016,03,05,15,16,997.80
2016,03,05,15,17,997.80
2016,03,05,15,18,997.73
2016,03,05,15,19,997.66
2016,03,05,15,20,997.63
2016,03,05,15,21,997.53
2016,03,05,15,22,997.53
2016,03,05,15,23,997.46
2016,03,05,15,24,997.43
2016,03,05,15,25,997.36
2016,03,05,15,26,997.29
2016,03,05,15,27,997.29
2016,03,05,15,28,997.29
2016,03,05,15,29,997.22
2016,03,05,15,30,997.22
2016,03,05,15,31,997.19
2016,03,05,15,32,997.22
2016,03,05,15,33,997.16
2016,03,05,15,34,997.12
2016,03,05,15,35,997.05
2016,03,05,15,36,997.02
2016,03,05,15,37,997.02
2016,03,05,15,38,996.92
2016,03,05,15,39,996.92
2016,03,05,15,40,996.85
2016,03,05,15,41,996.82
2016,03,05,15,42,996.78
2016,03,05,15,43,996.82
2016,03,05,15,44,996.78
2016,03,05,15,45,996.78
2016,03,05,15,46,996.78
2016,03,05,15,47,996.78
2016,03,05,15,48,996.85
2016,03,05,15,49,996.85
2016,03,05,15,50,996.85
2016,03,05,15,51,996.82
2016,03,05,15,52,996.78
2016,03,05,15,53,996.72
2016,03,05,15,54,996.72
2016,03,05,15,55,996.65
2016,03,05,15,56,996.65
2016,03,05,15,57,996.65
2016,03,05,15,58,996.68
2016,03,05,15,59,996.68
2016,03,05,16,00,996.68
2016,03,05,16,01,996.75
2016,03,05,16,02,996.75
2016,03,05,16,03,996.75
2016,03,05,16,04,996.75
2016,03,05,16,05,996.72
2016,03,05,16,06,996.72
2016,03,05,16,07,996.68
2016,03,05,16,08,996.65
2016,03,05,16,09,996.65
2016,03,05,16,10,996.58
2016,03,05,16,11,996.58
2016,03,05,16,12,996.48
2016,03,05,16,13,996.45
2016,03,05,16,14,996.34
2016,03,05,16,15,996.28
2016,03,05,16,16,996.24
2016,03,05,16,17,996.17
2016,03,05,16,18,996.21
2016,03,05,16,19,996.24
2016,03,05,16,20,996.24
2016,03,05,16,21,996.28
2016,03,05,16,22,996.28
2016,03,05,16,23,996.24
2016,03,05,16,24,996.24
2016,03,05,16,25,996.21
2016,03,05,16,26,996.11
2016,03,05,16,27,996.07
2016,03,05,16,28,996.04